Weather History for KMDD - September, 2012

Change the Weather History Date:

Thursday, September 6, 2012

  Actual Average (KMAF) Record (KMAF)
Temperature  
Mean Temperature 86 °F 77 °F  
Max Temperature 99 °F 90 °F 104 °F (2000)
Min Temperature 74 °F 65 °F 50 °F (2011)
Degree Days  
Heating Degree Days 0 0  
Month to date heating degree days 0  
Since 1 July heating degree days 0  
Cooling Degree Days 22 12  
Month to date cooling degree days 79  
Year to date cooling degree days 1963  
Growing Degree Days 36 (Base 50)    
Moisture  
Dew Point 56 °F    
Average Humidity 38    
Maximum Humidity 65    
Minimum Humidity 18    
Precipitation  
Precipitation 0.00 in 0.06 in 1.51 in (1962)
Month to date precipitation 0.39  
Year to date precipitation 10.11  
Sea Level Pressure  
Sea Level Pressure 30.00 in    
Wind  
Wind Speed 8 mph (SSE)    
Max Wind Speed 13 mph    
Max Gust Speed 22 mph    
Visibility 10 miles    
Events Thunderstorm    
T = Trace of Precipitation, MM = Missing Value Source: NWS Daily Summary

Daily Weather History Graph

Daily Weather History Graph

Search for Another Location

Airport or City:

Trip Planner

Search our weather history database for the weather conditions in past years. The results will help you decide how hot, cold, wet, or windy it might be!

Date:

Astronomy

Sep. 06, 2012 Rise Set
Actual Time 7:27 AM CDT 8:05 PM CDT
Civil Twilight 7:02 AM CDT 8:30 PM CDT
Nautical Twilight 6:33 AM CDT 8:59 PM CDT
Astronomical Twilight 6:03 AM CDT 9:28 PM CDT
Moon 11:42 PM CDT (9/6) 1:04 PM CDT (9/6)
Length of Visible Light 13h 27m
Length of Day
12h 38m
Waning Gibbous, 67% of the Moon is Illuminated
Sep 6
Waning Gibbous
Sep 8
Last Quarter
Sep 15
New
Sep 22
First Quarter
Sep 29
Full

Hourly Weather History & Observations

Time (CDT) Temp. Heat Index Dew Point Humidity Pressure Visibility Wind Dir Wind Speed Gust Speed Precip Events Conditions
12:15 AM 84.9 °F 84.4 °F 59.0 °F 41% 30.02 in 10.0 mi NE 8.1 mph 16.1 mph N/A   Clear
12:35 AM 84.2 °F 84.0 °F 59.7 °F 43% 30.04 in 7.0 mi NNW 5.8 mph - N/A Thunderstorm Mostly Cloudy
12:55 AM 83.7 °F 83.8 °F 60.3 °F 45% 30.06 in 10.0 mi WNW 12.7 mph 21.9 mph N/A   Overcast
1:15 AM 81.5 °F 82.7 °F 62.6 °F 53% 30.06 in 10.0 mi NW 12.7 mph - N/A   Mostly Cloudy
1:55 AM 79.7 °F - 64.0 °F 59% 30.06 in 10.0 mi NW 9.2 mph - N/A   Scattered Clouds
2:15 AM 79.2 °F - 63.9 °F 59% 30.07 in 10.0 mi WNW 12.7 mph - N/A   Clear
2:35 AM 78.3 °F - 63.5 °F 60% 30.06 in 10.0 mi WNW 9.2 mph - N/A   Clear
2:55 AM 77.9 °F - 63.3 °F 61% 30.07 in 10.0 mi West 11.5 mph 16.1 mph N/A   Clear
3:15 AM 77.9 °F - 63.0 °F 60% 30.06 in 10.0 mi West 10.4 mph - N/A   Clear
3:35 AM 78.6 °F - 60.4 °F 54% 30.05 in 10.0 mi West 9.2 mph - N/A   Clear
3:55 AM 79.7 °F - 58.3 °F 48% 30.04 in 10.0 mi WSW 5.8 mph - N/A   Clear
4:15 AM 80.1 °F 80.4 °F 57.2 °F 45% 30.03 in 10.0 mi WSW 5.8 mph - N/A   Clear
4:35 AM 80.6 °F 80.6 °F 56.1 °F 43% 30.02 in 10.0 mi WSW 5.8 mph - N/A   Clear
4:55 AM 80.8 °F 80.7 °F 55.4 °F 42% 30.00 in 10.0 mi SW 6.9 mph - N/A   Clear
5:15 AM 80.6 °F 80.4 °F 54.9 °F 41% 29.98 in 10.0 mi South 5.8 mph - N/A   Clear
5:35 AM 79.3 °F - 55.4 °F 44% 29.98 in 10.0 mi ENE 4.6 mph - N/A   Clear
5:55 AM 76.6 °F - 58.5 °F 53% 29.98 in 10.0 mi East 9.2 mph - N/A   Clear
6:15 AM 75.0 °F - 61.0 °F 62% 29.98 in 10.0 mi ENE 5.8 mph - N/A   Clear
6:35 AM 74.5 °F - 61.7 °F 64% 29.99 in 10.0 mi ENE 5.8 mph - N/A   Clear
6:55 AM 74.7 °F - 61.7 °F 64% 30.00 in 10.0 mi ESE 5.8 mph - N/A   Clear
7:15 AM 75.2 °F - 61.7 °F 63% 30.00 in 10.0 mi Calm Calm - N/A   Clear
7:35 AM 75.2 °F - 61.7 °F 63% 30.01 in 10.0 mi Calm Calm - N/A   Clear
7:55 AM 74.5 °F - 61.7 °F 64% 30.03 in 10.0 mi North 5.8 mph - N/A   Clear
8:15 AM 74.3 °F - 61.9 °F 65% 30.03 in 10.0 mi ENE 6.9 mph - N/A   Clear
8:35 AM 75.2 °F - 62.1 °F 64% 30.03 in 10.0 mi NE 6.9 mph - N/A   Clear
8:55 AM 76.1 °F - 62.2 °F 62% 30.04 in 10.0 mi ENE 6.9 mph - N/A   Clear
9:15 AM 77.0 °F - 62.6 °F 61% 30.04 in 10.0 mi East 9.2 mph - N/A   Clear
9:35 AM 78.1 °F - 62.6 °F 59% 30.05 in 10.0 mi East 8.1 mph - N/A   Clear
9:55 AM 79.3 °F - 62.4 °F 56% 30.06 in 10.0 mi ENE 5.8 mph - N/A   Clear
10:15 AM 81.1 °F 82.1 °F 62.1 °F 52% 30.07 in 10.0 mi ESE 4.6 mph - N/A   Clear
10:35 AM 82.2 °F 83.0 °F 61.9 °F 50% 30.07 in 10.0 mi East 5.8 mph - N/A   Clear
10:55 AM 83.7 °F 84.1 °F 61.5 °F 47% 30.07 in 10.0 mi ESE 6.9 mph - N/A   Clear
11:15 AM 84.7 °F 84.8 °F 60.8 °F 44% 30.07 in 10.0 mi East 6.9 mph - N/A   Clear
11:35 AM 85.6 °F 85.7 °F 60.8 °F 43% 30.06 in 10.0 mi ESE 4.6 mph - N/A   Clear
11:55 AM 87.4 °F 86.9 °F 59.9 °F 39% 30.06 in 10.0 mi SE 3.5 mph - N/A   Clear
12:15 PM 88.3 °F 87.3 °F 58.5 °F 36% 30.06 in 10.0 mi ESE 3.5 mph - N/A   Clear
12:35 PM 89.6 °F 88.6 °F 58.3 °F 35% 30.05 in 10.0 mi ESE 4.6 mph - N/A   Clear
12:55 PM 90.7 °F 89.5 °F 57.6 °F 33% 30.05 in 10.0 mi SE 3.5 mph - N/A   Clear
1:15 PM 91.8 °F 90.3 °F 57.4 °F 31% 30.04 in 10.0 mi Calm Calm - N/A   Clear
1:35 PM 92.8 °F 91.1 °F 56.3 °F 29% 30.03 in 10.0 mi Calm Calm - N/A   Clear
1:55 PM 93.7 °F 92.0 °F 55.9 °F 28% 30.03 in 10.0 mi Calm Calm - N/A   Clear
2:15 PM 94.3 °F 92.4 °F 55.6 °F 27% 30.02 in 10.0 mi South 5.8 mph - N/A   Clear
2:35 PM 95.5 °F 93.7 °F 55.6 °F 26% 30.01 in 10.0 mi ESE 8.1 mph - N/A   Clear
2:55 PM 96.6 °F 94.2 °F 53.6 °F 23% 30.00 in 10.0 mi South 9.2 mph 17.3 mph N/A   Clear
3:15 PM 97.2 °F - 52.0 °F 22% 29.99 in 10.0 mi South 10.4 mph - N/A   Clear
3:35 PM 97.7 °F - 51.1 °F 21% 29.98 in 10.0 mi SSE 8.1 mph - N/A   Clear
3:55 PM 98.1 °F - 50.2 °F 20% 29.96 in 10.0 mi South 12.7 mph 17.3 mph N/A   Clear
4:15 PM 99.0 °F - 49.1 °F 18% 29.96 in 10.0 mi ESE 9.2 mph 17.3 mph N/A   Clear
4:35 PM 99.0 °F - 48.2 °F 18% 29.95 in 10.0 mi South 6.9 mph 10.4 mph N/A   Clear
4:55 PM 99.1 °F - 47.8 °F 18% 29.94 in 10.0 mi SSE 11.5 mph 18.4 mph N/A   Clear
5:15 PM 99.1 °F - 48.6 °F 18% 29.94 in 10.0 mi South 6.9 mph - N/A   Clear
5:35 PM 99.0 °F - 50.5 °F 19% 29.93 in 10.0 mi SE 9.2 mph - N/A   Clear
5:55 PM 99.0 °F - 50.9 °F 20% 29.93 in 10.0 mi SSE 5.8 mph - N/A   Scattered Clouds
6:15 PM 99.0 °F - 50.9 °F 20% 29.93 in 10.0 mi SE 9.2 mph - N/A   Clear
6:35 PM 98.2 °F - 50.4 °F 20% 29.93 in 10.0 mi SSE 9.2 mph 17.3 mph N/A   Clear
6:55 PM 97.5 °F - 50.4 °F 20% 29.93 in 10.0 mi SSE 8.1 mph - N/A   Clear
7:15 PM 97.2 °F - 50.0 °F 20% 29.92 in 10.0 mi SSE 8.1 mph - N/A   Clear
7:35 PM 96.4 °F - 50.5 °F 21% 29.92 in 10.0 mi SSE 6.9 mph - N/A   Clear
7:55 PM 95.5 °F - 50.5 °F 22% 29.92 in 10.0 mi South 6.9 mph - N/A   Clear
8:15 PM 94.5 °F - 50.7 °F 23% 29.93 in 10.0 mi South 6.9 mph - N/A   Clear
8:35 PM 93.6 °F - 50.9 °F 23% 29.93 in 10.0 mi South 6.9 mph - N/A   Clear
8:55 PM 93.0 °F - 50.9 °F 24% 29.93 in 10.0 mi South 9.2 mph - N/A   Clear
9:15 PM 92.3 °F - 50.0 °F 24% 29.93 in 10.0 mi South 10.4 mph - N/A   Clear
9:35 PM 91.9 °F - 48.2 °F 22% 29.94 in 10.0 mi South 10.4 mph - N/A   Clear
9:55 PM 91.2 °F - 46.6 °F 21% 29.94 in 10.0 mi South 10.4 mph - N/A   Clear
10:15 PM 90.5 °F - 45.7 °F 21% 29.95 in 10.0 mi South 11.5 mph - N/A   Clear
10:35 PM 89.6 °F - 45.9 °F 22% 29.96 in 10.0 mi South 12.7 mph 17.3 mph N/A   Clear
11:15 PM 88.5 °F - 46.0 °F 23% 29.97 in 10.0 mi South 10.4 mph 16.1 mph N/A   Clear
11:35 PM 88.2 °F - 46.2 °F 23% 29.98 in 10.0 mi South 10.4 mph - N/A   Clear
11:55 PM 87.8 °F - 46.0 °F 23% 29.99 in 10.0 mi SSW 8.1 mph - N/A   Clear